Regional Weather Roundup
Issued by NWS

Home | Current Version | Previous Version | Graphics & Text | Print | Product List | Glossary On
Versions: 1 2 3 4 5 6 7 8 9 10 11 12 13 14 15 16 17 18 19 20 21 22 23 24 25 26 27 28 29 30 31 32 33 34 35 36 37 38 39 40 41 42 43 44 45 46 47 48 49 50
646
ASUS43 KMKX 220321
RWRWI

WISCONSIN REGIONAL WEATHER ROUNDUP
NATIONAL WEATHER SERVICE MILWAUKEE/SULLIVAN WI
1000 PM CDT THU MAY 21 2015

NOTE: "FAIR" INDICATES FEW OR NO CLOUDS BELOW 12,000 FEET WITH NO
SIGNIFICANT WEATHER AND/OR OBSTRUCTIONS TO VISIBILITY.

WIZ001-002-006>008-014>016-023>028-220400-
NORTHWEST WISCONSIN

CITY           SKY/WX    TMP DP  RH WIND       PRES   REMARKS
SUPERIOR ARPT  CLEAR     57  29  34 N5        30.06R
ASHLAND        CLEAR     46  37  71 NE3       30.06R
HAYWARD        CLEAR     50  36  58 CALM      30.05R
SIREN          CLEAR     53  38  56 CALM      30.06R
CUMBERLAND     CLEAR     52  34  50 NW3       30.05R
RICE LAKE      CLEAR     55  36  48 W3        30.06R
CHETEK         CLEAR     52  36  54 NW3       30.05R
LADYSMITH      CLEAR     51  37  57 CALM      30.05R
EAU CLAIRE     CLEAR     54  42  64 NW5       30.03R
MENOMONIE      CLEAR     60  35  40 W6        30.04R
NEW RICHMOND   CLEAR     57  34  42 NW6       30.07R
OSCEOLA        CLEAR     58  34  40 CALM      30.09R
$$

WIZ003>005-009-010-017-018-220400-
NORTH CENTRAL WISCONSIN

CITY           SKY/WX    TMP DP  RH WIND       PRES   REMARKS
MANITOWISH WTR CLEAR     43  34  70 CALM      30.04R
ARBOR VITAE    CLEAR     45  32  60 CALM      30.04R
WOODRUFF       CLEAR     45  32  60 CALM      30.04R
RHINELANDER    CLEAR     43  30  60 CALM      30.04R
EAGLE RIVER    CLEAR     42  31  65 CALM      30.03S
LAND O LAKES   CLEAR     40  32  73 CALM      30.04S
PHILLIPS       CLEAR     45  36  70 CALM      30.04R
TOMAHAWK       CLEAR     42  32  68 CALM      30.04S
MEDFORD        CLEAR     47  33  59 CALM      30.04R
MERRILL        CLEAR     48  32  53 CALM      30.04R
$$

WIZ029-030-035-036-043>047-220400-
CENTRAL WISCONSIN

CITY           SKY/WX    TMP DP  RH WIND       PRES   REMARKS
WAUSAU         CLEAR     53  30  41 CALM      30.02R
MOSINEE        CLEAR     55  27  33 NE3       30.04R
MARSHFIELD     CLEAR     57  29  34 NE5       30.03R
STEVENS POINT  CLEAR     53  28  39 NE6       30.03R
WAUPACA        CLEAR     56  42  60 NE6       30.04R
WAUTOMA        CLEAR     60  38  44 NE13      30.03R
WISC RAPIDS    CLEAR     57  28  33 NE6       30.04R
CAMP DOUGLAS   CLEAR     57  39  51 CALM      30.02R
$$

WIZ011>013-019>022-031-037>040-048>050-220400-
NORTHEAST WISCONSIN

CITY           SKY/WX    TMP DP  RH WIND       PRES   REMARKS
ANTIGO         CLEAR     44  33  64 CALM      30.04R
SHAWANO        CLEAR     51  35  52 E3        30.06R
OCONTO         CLEAR     43  38  84 CALM      30.04R
STURGEON BAY   CLEAR     46  27  46 E5        30.06R
GREEN BAY      CLEAR     50  33  52 E8        30.05R
MANITOWOC      CLOUDY    49  29  46 NE8       30.05R
APPLETON       PTCLDY    52  32  46 E8        30.04R
CLINTONVILLE   CLEAR     46  37  71 CALM      30.05R
OSHKOSH        PTCLDY    53  36  52 E12       30.03R
$$

WIZ032>034-041-042-053>061-220400-
SOUTHWEST WISCONSIN

CITY           SKY/WX    TMP DP  RH WIND       PRES   REMARKS
LA CROSSE      CLEAR     59  44  57 N5        30.03R
SPARTA         CLEAR     51  41  69 CALM      30.04R
VIROQUA        PTCLDY    59  39  46 W5        30.03R
BOSCOBEL       CLEAR     56  39  53 CALM      30.02R
PRAIRIE DU CHI CLEAR     55  39  55 CALM      30.03R
PLATTEVILLE    CLEAR     59  36  41 W6        30.03R
$$

WIZ056-057-062-063-064-067-068-220400-
SOUTH CENTRAL WISCONSIN

CITY           SKY/WX    TMP DP  RH WIND       PRES   REMARKS
REEDSBURG      CLEAR     59  38  45 NW5       30.01R
BARABOO/DELLS  CLEAR     59  34  39 NW3       30.00R
LONE ROCK      CLEAR     62  35  36 NW8       30.01R
MINERAL POINT  CLEAR     59  32  36 W3        30.02R
MADISON        PTCLDY    64  42  44 VRB5      29.99R
MIDDLETON      CLEAR     61  41  47 W6        30.00S
WATERTOWN      CLOUDY    62  46  55 SW7       29.98R THUNDER
MONROE         CLEAR     59  45  58 SW10      30.01R
JANESVILLE     CLEAR     59  41  51 SW3       29.99S
$$

WIZ051-052-058>065-066-070>072-220400-
SOUTHEAST WISCONSIN

CITY           SKY/WX    TMP DP  RH WIND       PRES   REMARKS
MILWAUKEE      LGT RAIN  55  42  61 NE13      30.00R
WAUKESHA       CLOUDY    61  41  48 W9G18     30.01R
MILWAUKEE/TIMM CLOUDY    55  41  58 NE16      30.03R
RACINE         CLOUDY    63  40  42 W5        30.00R
BURLINGTON     CLEAR     56  41  56 SW9       29.99R
KENOSHA        CLEAR     60  42  51 SW10      29.99R
FOND DU LAC    PTCLDY    52  37  56 E10       30.03R
SHEBOYGAN      PTCLDY    47  34  60 NE16      30.03R
WEST BEND      MOCLDY    52  39  62 E8        30.02R
JUNEAU         CLOUDY    62  42  47 SW6       29.98R THUNDER
$$

LSZ147-162-220400-
LAKE SUPERIOR

STATION/POSITION TIME  TEMP    WIND        PRES    WAVE
                       AIR SEA DIR/SP/G            HT/PER
                 (UTC) (F)     (DEG/KT/KT) (MB)    (FT/S)
W MID LAKE BUOY  0250   39 36  100/  8/  8   N/A     0
DEVILS ISLAND    0300   53      20/  2/  3   N/A
PORT WING        0200   53      CALM  /  2   N/A
SAXON HARBOR     0200   50        CALM       N/A
$$

LMZ867-665-643>646-220400-
LAKE MICHIGAN

STATION/POSITION TIME  TEMP    WIND        PRES    WAVE
                       AIR SEA DIR/SP/G            HT/PER
                 (UTC) (F)     (DEG/KT/KT) (MB)    (FT/S)
CHAMBERS ISLAND  0200   52      70/  7/ 10   N/A
N MID LAKE BUOY  0250   43 36  340/  4/  6   N/A     1/ 4
NORTHPORT PIER   0200   46     160/  1/  2   N/A
SISTER BAY       0247   47     120/  4/  7   N/A
KEWAUNEE LAKESHO 0200           40/  6/ 10   N/A
SHEBOYGAN LAKESH 0300           10/ 12/ 13   N/A
PORT WASHINGTON  0200   58      20/ 10/ 20   N/A
ATWATER BUOY     0200   53 44   20/ 17/ 21   N/A
MILWAUKEE LAKESH 0200   67     350/ 13/ 16   N/A
S MID LAKE BUOY  0250   45 38  210/ 12/ 12   N/A     1/ 4
KENOSHA   LAKESH 0100   67     230/ 12/ 19   N/A
$$

TC  - TEMPERATURE IN CELSIUS
VSB - VISIBILITY IN STATUTE MILES
WCI - WIND CHILL INDEX
HX  - HEAT INDEX




USA.gov is the U.S. government's official web portal to all federal, state and local government web resources and services.